Find Starlink 31561

NORAD ID: 59352 Int'l Des: 2024-060 Owner: SPXS Country: US Constellation: starlink operational
LEOCIRCULAR

Live Position

Loading 3D Globe...

About Starlink 31561

Description loading...

Upcoming Passes

Passes for default location (London). Set your location on the main map for personalized predictions.

Altitude History

Loading altitude history...

Two-Line Element Set

1 59352U 24060E 26110.44500434 .00008426 00000-0 31590-3 0 9991
2 59352 43.0028 23.6245 0000441 103.7897 256.3004 15.27523967116453
Epoch: Apr 20, 2026 • Age: 12 hours

Current Status

Altitude 484.3 km
Velocity 7.63 km/s
Sub-Earth Point 34.87°N, 29.12°W
Launch Date Mar 31, 2024
Age 2 years
Type internet

Technical Details

Classification Payload
Mass 730.00 kg
Dry Mass 700.00 kg
Total Mass 730.00 kg
Length 0.30 m
Diameter 4.10 m
Span 29.00 m
Shape Box + pan
Manufacturer SPXS
Bus Type Starlink V2M
Phase Status In Orbit
Owner/State SPXS/US

Most Searched